Location: Bellmore
(40.6687°N, 73.5271°W)
Time: 17:54:34
(UTC+00:00)

Daily predictions for brighter satellites

Satellite Brightness Start Highest point End
(mag) Time Altitude Azimuth Time Altitude Azimuth Time Altitude Azimuth
SL-24 R/B 4.3 22:25:34 10° SSE 22:29:56 89° ENE 22:34:43 10° NNW
CORIOLIS 4.2 22:26:30 10° SSE 22:31:53 87° ENE 22:37:17 10° NNW
Cosmos 1818 4.3 22:30:50 10° SW 22:36:08 55° NW 22:41:31 10° NNE
CREW DRAGON DEMO-1 DEB 2.7 22:36:16 10° NW 22:39:07 57° NE 22:41:58 10° ESE
Okean 1-7 Rocket 3.7 22:36:45 10° S 22:41:17 88° W 22:45:53 10° N
Nadezhda 4 Rocket 4.0 22:38:18 10° S 22:44:30 75° E 22:50:41 10° N
CZ-4 R/B 2.5 22:42:13 10° ESE 22:45:26 23° ENE 22:48:37 10° NNE
Cosmos 2112 Rocket 4.5 22:41:12 10° N 22:46:04 38° ENE 22:50:53 10° SE
ARGOS 4.4 22:44:19 10° ESE 22:48:02 20° ENE 22:51:46 10° NNE
COSMO-SKYMED 1 2.7 22:45:20 10° NNE 22:49:38 57° E 22:53:53 10° S
Feng Yun 1-1 Rocket 4.3 22:45:16 10° SSE 22:50:35 59° ENE 22:56:04 10° N
CZ-2C R/B 3.4 22:46:43 10° SE 22:51:53 49° ENE 22:57:19 10° N
Meteor 1-21 Rocket 4.1 22:47:42 10° S 22:53:12 74° E 22:58:45 10° NNE
MOS 1 Rocket 3.2 22:51:48 10° NNE 22:55:59 51° E 23:00:13 10° S
Cosmos 990 Rocket 3.9 22:51:35 10° S 22:56:46 73° ESE 23:01:57 10° NNE
CZ-2C R/B 4.0 22:56:11 10° NE 23:00:01 19° E 23:03:49 10° SE
NOSS 3-1 (C) 4.2 22:53:23 10° NNW 23:00:47 54° NE 23:09:16 10° SE
Cosmos-2242 4.2 22:57:55 10° NNE 23:01:10 21° ENE 23:04:26 10° ESE
Cosmos 1703 3.2 22:58:07 10° S 23:01:57 66° E 23:05:49 10° NNE
PSLV R/B 4.3 23:03:02 10° NNE 23:07:04 43° E 23:11:04 10° S
Cosmos 158 Rocket 4.2 23:02:18 10° NNW 23:07:42 80° WSW 23:13:05 10° SSE
Cosmos 1602 Rocket 3.4 23:05:07 10° S 23:09:25 71° E 23:13:48 10° NNE
Cosmos 405 3.7 23:08:46 10° NNE 23:11:55 30° ENE 23:15:03 10° SE
H-2A R/B 4.0 23:08:06 10° N 23:11:57 30° WNW 23:15:42 10° SW
NOSS 2-1 (C) 3.6 23:09:12 10° SW 23:12:31 51° NW 23:15:32 12° NNE
ISS -1.4 23:12:00 10° NW 23:14:09 16° NNW 23:15:55 12° NNE
YAOGAN 1 2.9 23:10:34 10° SE 23:14:39 42° ENE 23:18:45 10° N
Meteor 2-8 Rocket 4.4 23:10:27 10° N 23:16:30 59° E 23:22:30 10° SSE
Okean O Rocket 3.6 23:14:10 10° SSW 23:18:09 32° W 23:22:08 10° NNW
NOSS 2-1 (D) 3.9 23:15:13 10° SW 23:18:27 43° NW 23:21:18 13° NNE
Cosmos 1346 Rocket 3.5 23:16:01 10° SSE 23:19:29 30° E 23:20:46 25° ENE
SJ 16-02 3.3 23:15:43 10° SW 23:19:32 28° WNW 23:23:21 10° N
Cosmos 2026 Rocket 3.9 23:14:19 10° S 23:20:21 66° E 23:26:31 10° NNE
USA 229 DEB 4.1 23:13:30 10° NNW 23:20:38 51° NE 23:28:06 10° ESE
USA 229 4.1 23:13:37 10° NNW 23:20:44 50° NE 23:28:11 10° ESE
Cosmos 1833 Rocket 3.2 23:16:40 10° N 23:21:47 35° ENE 23:25:38 16° ESE
Lacrosse 5 3.1 23:17:30 10° WNW 23:22:15 43° SW 23:26:59 10° SSE
Cosmos 858 Rocket 4.4 23:19:07 10° SSW 23:24:23 76° ESE 23:29:40 10° NNE
Okean-O 2.6 23:20:23 10° SSE 23:24:42 57° ENE 23:29:04 10° N
Cosmos 1825 Rocket 3.9 23:21:22 10° SSE 23:25:26 40° E 23:28:40 15° NNE
COSMOS 2406 3.5 23:21:05 10° NNW 23:26:37 44° ENE 23:32:04 10° SE
Cosmos 1553 Rocket 4.4 23:21:46 10° N 23:27:47 41° ENE 23:33:41 10° SE
Cosmos 1812 Rocket 3.4 23:26:48 10° N 23:31:12 88° E 23:35:32 10° S
Iridium 4 Rocket 3.4 23:25:59 10° N 23:31:24 71° E 23:36:19 10° S
Cosmos 2082 Rocket 3.2 23:30:40 10° N 23:35:22 26° NE 23:35:27 26° NE
DMSP B5D1-3 4.5 23:30:20 10° NNE 23:35:23 61° ESE 23:40:25 10° S
NOSS 3-1 (A) 4.2 23:28:51 10° NNW 23:36:19 56° NE 23:44:20 12° SE
Hubble Space Telescope 3.6 23:35:55 10° SSW 23:36:28 10° SSW 23:37:00 10° S
Cosmos 1898 Rocket 4.3 23:37:25 10° SW 23:42:32 52° WNW 23:47:39 10° N
Cosmos 1655 Rocket 4.4 23:37:12 10° SSE 23:42:48 37° E 23:47:26 15° NNE
X-37B 1.5 23:40:03 10° WNW 23:42:55 36° N 23:42:55 36° N
Helios 1A Rocket 2.8 23:39:21 10° SSE 23:43:27 68° ENE 23:47:35 10° N
Meteor 2-15 Rocket 4.4 23:40:51 10° N 23:46:55 56° E 23:52:55 10° SSE
Cosmos 1680 Rocket 4.4 23:43:59 10° NNW 23:49:00 49° WSW 23:53:59 10° S
Cosmos 1953 Rocket 3.7 23:45:51 10° SSE 23:49:39 47° ESE 23:49:39 47° ESE
Cosmos 1340 4.2 23:47:37 10° SW 23:51:05 35° WNW 23:54:34 10° N
ERS-2 3.3 23:47:51 10° N 23:51:18 41° WNW 23:54:43 10° SW
SJ-11-01 4.2 23:47:27 10° SSE 23:52:08 89° WSW 23:56:51 10° NNW
S3M 4.2 23:46:50 10° N 23:52:38 43° ENE 23:58:25 10° SSE
Cosmos 1689 Rocket 3.2 23:52:10 29° NNW 23:53:04 40° WNW 23:55:45 10° SW
CZ-4B R/B 4.4 23:52:53 10° NNW 23:54:54 15° WNW 23:56:52 10° WSW
